This is the latest recevied weather packets stored in our database for station/object SP2ARK-10. If no packets are shown the sender has not sent any weather packets the latest 10 day(s).
| Time | Temp. | Humidity | Pressure | Rain* | Wind** | Luminosity | Snow |
|---|---|---|---|---|---|---|---|
| 1777621647 | 11.67° C | 70% | 1032.7 hPa | - | - | - | - |
| 1777620746 | 11.11° C | 72% | 1032.7 hPa | - | - | - | - |
| 1777619845 | 10.56° C | 73% | 1032.8 hPa | - | - | - | - |
| 1777618944 | 10.56° C | 75% | 1032.7 hPa | - | - | - | - |
| 1777618043 | 10° C | 76% | 1032.7 hPa | - | - | - | - |
| 1777617143 | 10° C | 79% | 1032.7 hPa | - | - | - | - |
| 1777616242 | 10° C | 87% | 1032.7 hPa | - | - | - | - |
| 1777615342 | 8.89° C | 75% | 1032.7 hPa | - | - | - | - |
| 1777614440 | 8.89° C | 75% | 1032.6 hPa | - | - | - | - |
| 1777613540 | 8.89° C | 75% | 1032.7 hPa | - | - | - | - |
| 1777612639 | 8.33° C | 75% | 1032.5 hPa | - | - | - | - |
| 1777611739 | 8.33° C | 75% | 1032.5 hPa | - | - | - | - |
| 1777610839 | 8.33° C | 75% | 1032.7 hPa | - | - | - | - |
| 1777609937 | 8.33° C | 75% | 1032.5 hPa | - | - | - | - |
| 1777609037 | 8.33° C | 75% | 1032.5 hPa | - | - | - | - |
| 1777608137 | 8.33° C | 75% | 1032.4 hPa | - | - | - | - |
| 1777607236 | 8.33° C | 74% | 1032.2 hPa | - | - | - | - |
| 1777606335 | 8.33° C | 74% | 1032.3 hPa | - | - | - | - |
| 1777605434 | 8.33° C | 73% | 1032.5 hPa | - | - | - | - |
| 1777604534 | 8.33° C | 73% | 1032.4 hPa | - | - | - | - |
| 1777603633 | 8.89° C | 73% | 1032.4 hPa | - | - | - | - |
| 1777602733 | 8.89° C | 72% | 1032.5 hPa | - | - | - | - |
| 1777601832 | 9.44° C | 72% | 1032.4 hPa | - | - | - | - |
| 1777600932 | 9.44° C | 72% | 1032.3 hPa | - | - | - | - |
| 1777584721 | 13.33° C | 66% | 1032.3 hPa | - | - | - | - |
* Rain since midnight (hover to see other rain measurements)
** Current wind speed in m/s (hover to see current wind gust speed)